Probability
0 0 0 0 0 0 0 0 0 0 0 0 0 0 0 0 0 0 0 0 0 0 0 0 0 0 0 0 0 0 0 0 0 0 0 0 0 0 0 0 0 0 0 0
0 0 0 0 0 0 0 0 0 0 0 0 0 0 0 0 0 0 0 0 0 0 0 0 0 0 0 0 0 0 0 0 0 0 0 0 0 0 0 0 0 0 0 0
0 0 0 0 0 0 0 0 0 0 0 0 0 0 0 0 0 0 0 0 0 0 0 0 0 0 0 0 0 0 0 0 0 0 0 0 0 0 0 0 0 0 0 0
0 0 0 0 0 0 0 0 0 0 0 0 0 0 0 0 0 0 0 0 0 0 0 0 0 0 0 0 0 0 0 0 0 0 0 0 0 0 0 0 0 0 0 0
0 0 0 0 0 0 0 0 0 0 0 0 0 0 0 0 0 0 0 0 0 0 0 0 0 0 0 0 0 0 0 0 0 0 0 0 0 0 0 0 0 0 0 0
0 0 0 0 0 0 0 0 0 0 0 0 0 0 0 0 0 0 0 0 0 0 0 0 0 0 0 0 0 0 0 0 0 0 0 0 0 0 0 0 0 0 0 0
0 0 0 0 0 0 0 0 0 0 0 0 0 0 0 0 0 0 0 0 0 0 0 0 0 0 0 0 0 0 0 0 0 0 0 0 0 0 0 0 0 0 0 0
0 0 0 0 0 0 0 0 0 0 0 0 0 0 0 0 0 0 0 0 0 0 0 0 0 0 0 0 0 0 0 0 0 0 0 0 0 0 0 0 0 0 0 0
0 0 0 0 0 0 0 0 0 0 0 0 0 0 0 0 0 0 0 0 0 0 0 0 0 0 0 0 0 0 0 0 0 0 0 0 0 0 0 0 0 0 0 0
0 0 0 0 0 0 0 0 0 0 0 0 0 0 0 0 0 0 0 0 0 0 0 0 0 0 0 0 0 0 0 0 0 0 0 0 0 0 0 0 0 0 0 0
0 0 0 0 0 0 0 0 0 0 0 0 0 0 0 0 0 0 0 0 0 0 0 0 0 0 0 0 0 0 0 0 0 0 0 0 0 0 0 0 0 0 0 0
0 0 0 0 0 0 0 0 0 0 0 0 0 0 0 0 0 0 0 0 0 0 0 0 0 0 0 0 0 0 0 0 0 0 0 0 0 0 0 0 0 0 0 0
0 0 0 0 0 0 0 0 0 0 0 0 0 0 0 0 0 0 0 0 0 0 0 0 0 0 0 0 0 0 0 0 0 0 0 0 0 0 0 0 0 0 0 0
0 0 0 0 0 0 0 0 0 0 0 0 0 0 0 0 0 0 0 0 0 0 0 0 0 0 0 0 0 0 0 0 0 0 0 0 0 0 0 0 0 0 0 0
0 0 0 0 0 0 0 0 0 0 0 0 0 0 0 0 0 0 0 0 0 0 0 0 0 0 0 0 0 0 0 0 0 0 0 0 0 0 0 0 0 0 0 0
0 0 0 0 0 0 0 0 0 0 0 0 0 0 0 0 0 0 0 0 0 0 0 0 0 0 0 0 0 0 0 0 0 0 0 0 0 0 0 0 0 0 0 0
0 0 0 0 0 0 0 0 0 0 0 0 0 0 0 0 0 0 0 0 0 0 0 0 0 0 0 0 0 0 0 0 0 0 0 0 0 0 0 0 0 0 0 0
0 0 0 0 0 0 0 0 0 0 0 0 0 0 0 0 0 0 0 0 0 0 0 0 0 0 0 0 0 0 0 0 0 0 0 0 0 0 0 0 0 0 0 0
0 0 0 0 0 0 0 0 0 0 0 0 0 0 0 0 0 0 0 0 0 0 0 0 0 0 0 0 0 0 0 0 0 0 0 0 0 0 0 0 0 0 0 0
0 0 0 0 0 0 0 0 0 0 0 0 0 0 0 0 0 0 0 0 0 0 0 0 0 0 0 0 0 0 0 0 0 0 0 0 0 0 0 0 0 0 0 0
0 0 0 0 0 0 0 0 0 0 0 0 0 0 0 0 0 0 0 0 0 0 0 0 0 0 0 0 0 0 0 0 0 0 0 0 0 0 0 0 0 0 0 0
0 0 0 0 0 0 0 0 0 0 0 0 0 0 0 0 0 0 0 0 0 0 0 0 0 0 0 0 0 0 0 0 0 0 0 0 0 0 0 0 0 0 0 0
0 0 0 0 0 0 0 0 0 0 0 0 0 0 0 0 0 0 0 0 0 0 0 0 0 0 0 0 0 0 0 0 0 0 0 0 0 0 0 0 0 0 0 0
0 0 0 0 0 0 0 0 0 0 0 0 0 0 0 0 0 0 0 0 0 0 0 0 0 0 0 0 0 0 0 0 0 0 0 0 0 0 0 0 0 0 0 0
0 0 0 0 0 0 0 0 0 0 0 0 0 0 0 0 0 0 0 0 0 0 0 0 0 0 0 0 0 0 0 0 0 0 0 0 0 0 0 0 0 0 0 0
0 0 0 0 0 0 0 0 0 0 0 0 0 0 0 0 0 0 0 0 0 0 0 0 0 0 0 0 0 0 0 0 0 0 0 0 0 0 0 0 0 0 0 0
0 0 0 0 0 0 0 0 0 0 0 0 0 0 0 0 0 0 0 0 0 0 0 0 0 0 0 0 0 0 0 0 0 0 0 0 0 0 0 0 0 0 0 0
Wind_Speed
2 4 10 12 16 17 18 19 16 16 15 12 13 14 15 14 13 12 11 10 9 8 7 6 6 6 6 6 6 6 6 7 7 6 6 6 7 7 6 6 6 6 6 6
3 4 5 6 15 22 23 20 21 15 15 6 9 10 12 14 15 14 13 11 9 8 7 6 5 5 5 6 6 5 6 7 6 6 6 6 7 7 6 6 6 6 6 7
6 5 3 10 16 19 17 15 15 22 16 8 11 14 16 17 17 16 14 13 11 9 8 6 5 4 5 5 4 5 5 5 5 6 6 6 6 6 7 7 7 7 7 7
7 7 13 10 4 14 17 16 16 11 5 14 15 14 11 13 16 15 14 13 11 9 8 6 5 5 4 4 4 4 4 4 5 6 6 6 7 7 7 7 7 7 8 8
7 10 10 5 5 9 13 16 14 15 10 7 7 6 4 7 11 12 12 11 10 8 8 7 5 4 4 4 4 4 4 4 5 6 6 7 7 8 8 8 8 8 8 9
7 9 13 6 5 5 6 10 8 13 13 12 13 10 9 10 11 12 11 10 9 8 8 6 5 3 4 3 3 4 4 5 6 6 6 7 8 8 8 8 9 9 9 9
8 8 9 3 5 9 10 8 3 9 11 14 13 6 9 14 12 12 12 10 10 9 7 5 4 3 3 3 3 4 5 6 6 6 7 8 8 7 8 8 9 9 10 9
9 10 10 8 10 12 5 2 3 5 8 9 6 10 14 15 14 13 12 10 9 8 6 5 4 3 3 3 4 5 6 6 7 7 7 6 7 8 7 8 9 9 9 9
9 7 1 8 6 3 4 4 4 5 7 11 11 12 14 13 13 12 11 9 7 7 7 5 4 4 2 3 5 5 6 6 7 8 7 7 7 8 8 7 7 7 7 8
4 4 2 3 1 2 3 3 4 6 10 11 12 14 13 12 10 10 8 7 5 6 5 3 3 3 3 4 5 5 6 7 7 7 8 7 6 6 6 7 7 7 8 8
5 2 1 4 6 5 4 4 6 6 6 11 14 13 12 10 9 8 7 5 4 4 3 2 2 2 3 4 4 5 6 6 6 6 7 8 7 7 8 8 8 9 8 8
8 8 7 6 7 9 8 8 10 9 7 6 9 12 11 9 8 7 7 5 4 4 2 1 1 2 2 3 3 4 5 5 5 6 6 7 8 8 10 11 14 15 14 12
2 4 3 2 5 7 7 8 7 8 10 9 7 8 10 8 7 7 6 5 4 3 1 0 1 2 3 3 3 3 5 6 6 6 6 6 7 8 9 8 10 11 11 11
3 5 4 5 6 7 7 7 7 7 6 7 7 7 8 7 6 6 5 4 3 2 1 1 2 3 3 3 4 4 6 6 6 6 6 7 7 7 8 9 9 7 7 9
5 4 4 5 6 7 7 8 8 7 7 6 6 7 8 8 7 6 4 3 2 1 1 1 2 3 3 3 4 5 6 5 5 6 6 7 7 7 7 8 8 8 6 6
7 4 4 6 9 9 8 9 10 11 10 9 8 7 6 6 6 5 4 3 3 3 2 2 3 3 4 4 5 5 5 7 7 6 6 6 7 7 7 7 7 6 5 5
10 9 9 8 11 12 12 12 13 13 12 11 11 9 8 7 6 5 4 3 2 2 3 3 4 4 4 4 5 5 5 6 7 6 6 6 6 6 6 6 6 5 4 5
14 15 14 13 14 15 14 11 9 11 11 11 11 10 10 9 8 7 5 3 2 2 3 3 4 4 4 4 4 4 4 5 5 5 5 5 6 6 6 5 5 5 3 4
12 12 12 12 12 13 13 12 11 10 10 12 12 11 9 7 6 6 5 4 4 4 3 2 4 2 3 5 5 4 4 5 5 5 5 5 5 5 4 4 4 3 3 3
9 7 7 7 7 8 9 9 10 10 10 10 10 9 8 7 6 6 6 5 4 2 1 2 3 3 3 4 4 3 4 4 5 4 4 4 4 4 4 4 3 3 3 3
6 5 5 6 5 5 6 10 11 11 10 10 10 10 8 7 6 6 5 5 3 2 2 3 3 3 3 3 3 3 3 4 4 4 4 4 4 4 4 4 3 3 3 3
1 3 4 6 7 7 6 6 8 10 10 8 7 8 8 7 6 5 4 2 2 2 2 2 2 3 3 3 2 3 3 4 4 3 3 4 4 4 4 4 4 4 4 4
2 3 5 6 7 8 7 6 7 8 9 9 9 9 8 6 5 5 4 3 2 3 3 2 3 4 4 2 2 3 4 4 4 4 4 4 4 4 4 5 4 4 4 4
3 4 5 6 8 8 8 6 6 5 6 6 5 5 5 4 3 2 1 2 2 3 3 4 6 6 4 2 3 4 4 5 5 5 5 5 5 5 5 5 5 5 5 6
4 5 6 7 6 5 7 7 7 7 6 5 5 4 3 2 2 2 2 2 3 3 3 4 6 5 4 4 4 5 5 5 5 5 5 6 6 6 6 6 6 6 6 6
4 4 3 3 3 5 5 5 5 5 5 4 3 2 2 1 1 1 1 2 3 4 4 4 4 4 4 5 5 6 6 6 6 6 7 7 7 7 7 7 9 7 7 7
4 4 3 3 3 3 4 4 4 4 4 4 3 2 2 2 1 2 2 2 3 3 4 4 4 5 5 5 6 6 6 6 7 7 7 7 7 7 8 9 8 7 7 8
Wind_Direction
182 136 166 190 194 193 208 218 222 229 222 210 192 186 180 173 165 162 161 158 151 138 126 114 99 87 77 70 58 54 59 53 40 26 18 12 5 358 351 346 341 334 326 322
145 160 178 202 206 205 215 224 232 238 234 208 188 180 176 177 176 176 173 166 156 145 134 122 108 93 80 65 52 47 51 43 25 14 8 2 352 344 338 335 331 326 321 317
177 147 131 236 215 208 217 221 223 236 238 164 188 193 191 186 185 182 174 167 162 154 144 132 116 99 84 70 59 55 51 37 18 4 355 347 337 332 328 325 322 317 313 311
143 153 218 232 190 206 216 225 221 231 203 186 198 195 193 188 183 178 170 165 159 151 140 127 113 97 88 78 66 57 46 27 9 355 344 335 329 324 322 318 313 308 307 306
176 210 242 256 203 189 205 233 221 225 215 184 140 124 187 183 177 171 163 154 148 141 133 124 112 101 95 78 64 51 30 9 355 345 334 328 323 320 318 313 307 303 299 298
181 206 227 228 172 173 163 245 210 208 204 176 157 191 203 165 153 144 139 137 134 130 123 115 102 95 90 75 55 32 3 345 337 331 322 315 312 311 309 305 299 300 295 293
193 216 246 203 152 149 185 232 181 197 191 177 189 204 139 141 140 138 135 133 130 125 115 104 94 93 88 68 37 3 342 329 325 321 312 304 304 303 302 300 299 297 295 293
188 211 231 158 159 188 197 116 151 165 167 164 139 119 133 139 139 138 134 131 130 124 113 96 78 75 73 46 10 350 335 325 319 314 309 306 304 301 298 297 296 297 298 299
193 210 112 167 183 166 140 156 164 157 153 143 135 141 141 141 141 138 134 129 124 122 115 94 65 55 53 13 355 341 327 317 311 309 304 301 300 300 300 295 292 297 298 298
205 231 188 193 182 169 174 164 154 149 148 149 147 147 144 142 139 134 127 123 121 122 120 108 73 54 30 357 347 328 315 313 311 310 309 307 299 292 291 291 289 289 291 294
211 205 157 238 218 192 156 131 130 129 139 151 144 146 146 144 141 137 127 120 116 119 117 102 60 31 12 355 342 322 310 307 308 306 306 305 298 288 287 278 274 283 286 289
208 190 189 205 193 174 165 164 158 144 132 132 146 146 142 141 140 137 134 127 122 116 116 89 6 339 349 348 337 318 309 310 308 305 303 300 301 298 284 281 287 285 284 287
186 152 156 127 146 162 167 161 155 151 149 143 135 138 141 138 139 134 133 133 135 136 135 307 313 310 326 331 319 302 297 299 298 297 297 297 299 301 304 303 293 294 296 302
163 135 147 177 175 165 147 134 118 106 109 125 129 129 130 130 137 144 145 136 128 131 159 258 284 292 316 320 308 296 289 286 284 287 290 291 290 291 291 295 300 298 304 310
199 199 183 160 143 139 136 135 136 143 141 133 133 141 147 151 158 154 136 126 132 168 201 253 278 290 317 312 298 292 290 287 286 287 286 285 286 285 284 285 287 293 300 307
184 175 163 165 172 168 163 169 172 176 171 165 163 161 153 142 137 137 143 154 180 206 216 251 271 291 307 300 295 288 281 283 288 288 287 286 286 286 286 287 288 290 295 307
174 193 194 196 197 194 194 193 191 182 176 175 171 155 143 138 144 166 175 182 206 234 239 246 265 284 288 286 288 289 290 291 288 285 283 285 288 288 288 288 288 291 299 312
205 207 198 196 197 199 201 197 186 177 177 170 151 153 162 172 180 178 173 168 195 240 242 243 263 272 278 288 281 283 285 288 289 288 289 288 290 289 289 288 289 292 307 326
213 212 206 204 199 194 192 189 183 170 154 151 159 169 173 175 166 158 158 172 191 213 220 253 284 303 293 291 290 279 286 289 290 289 289 292 291 291 292 292 294 297 303 312
215 213 204 197 185 181 180 167 155 151 153 155 154 155 162 167 161 161 172 195 207 206 205 263 278 275 281 287 304 289 288 289 292 295 297 299 301 302 302 301 301 301 302 302
210 195 182 170 150 129 144 149 151 154 153 156 161 165 163 158 161 165 177 197 195 205 236 252 254 268 277 290 290 290 291 291 292 295 298 300 301 302 302 303 301 298 297 295
185 160 152 139 133 123 117 129 139 142 145 149 144 143 148 157 166 178 206 210 171 208 236 243 256 268 278 284 286 289 289 289 289 290 290 292 292 294 295 296 294 292 290 287
117 126 131 131 131 123 113 117 132 142 149 153 154 159 164 162 168 174 188 187 195 227 236 247 269 270 268 263 275 280 282 282 281 281 282 283 283 283 284 285 284 283 281 279
118 121 119 117 124 132 134 131 126 125 129 133 139 147 150 152 168 197 149 160 207 242 251 261 270 275 277 268 270 271 270 271 273 275 277 277 275 274 273 274 275 274 273 273
112 117 128 141 145 141 132 131 124 126 129 127 133 144 153 158 160 162 177 211 240 254 260 270 278 284 281 267 265 265 266 265 267 271 269 269 269 269 269 268 267 269 269 267
121 125 125 118 115 126 136 140 139 142 141 138 141 151 151 150 158 178 210 231 246 257 261 263 266 268 261 261 261 262 264 267 266 262 261 265 267 266 266 265 266 264 265 265
105 106 106 101 100 118 131 137 138 144 149 148 147 158 166 174 193 216 238 251 255 257 259 260 260 259 260 261 262 262 262 262 262 261 262 261 261 262 263 264 265 265 265 264